Location: ??
(35.5052°N, 139.7262°E)
Time: 17:34:49
(UTC+00:00)

SL-16 R/B - Pass Details

Date: 20 June 2021
Orbit: 842 x 847 km, 71.0° (Epoch: 29 July)

Event Time Altitude Azimuth Distance (km) Brightness Sun altitude
Exits shadow 15:36:34 15° 286° (WNW) 2,103 4.2 -29.7°
Maximum altitude 15:38:02 17° 305° (NW) 2,020 4.3 -29.6°
Drops below altitude 10° 15:41:37 10° 345° (NNW) 2,468 5.3 -29.4°
Sets 15:45:01 0° 5° (N) 3,406 6.5 -29.2°
